[[{"header":{"parameterUnit":"m.s-1","parameterCategory":1,"la1":30.2991,"la2":30.254,"lo1":-89.0895,"lo2":-89.0444,"dy":0.0017,"dx":0.0017,"nx":28,"ny":28,"refTime":"2024-07-15T09:00:00:Z","depth":0,"parameterNumber":2,"parameterNumberName":"U-component_of_WINDS"},"data":[0,0,0,0,0,0,0,0,0,0,0,0,0,0,0,0,0,0,0,0,0,0,0,0,0,0,0,0,0,0,0,0,0,0,0,0,0,0,0,0,0,0,0,0,0,0,0,0,0,0,0,0,0,0,0,0,0,0,1.8864,1.8865,0,1.8934,1.8935,1.8936,1.8918,1.8916,1.8915,1.8913,1.8986,1.8989,1.8992,0,0,0,0,0,0,0,0,0,0,0,0,0,1.8714,1.8717,1.8864,1.8865,1.8866,1.8934,1.8935,1.8936,1.8918,1.8916,1.8914,1.8913,1.8985,1.8989,1.8993,0,0,0,0,0,0,0,0,0,0,0,0,0,1.8781,1.8718,1.8864,1.8865,1.8866,1.8934,1.8935,1.8936,1.8918,1.8916,1.8914,1.8912,1.8984,1.8988,1.8993,1.9065,0,0,1.9008,1.901,0,0,0,0,0,0,0,0,1.8778,1.8787,1.8864,1.8865,1.8866,1.8915,1.8909,1.8979,1.8919,1.8898,1.8913,1.8911,1.8964,1.897,1.8988,1.9068,1.9071,1.9008,1.9011,1.9013,1.9015,0,0,0,0,0,0,0,1.8773,1.8784,1.8892,1.8865,1.8867,1.8862,1.8869,1.8922,1.8942,1.89,1.8899,1.8907,1.8964,1.8984,1.899,1.9072,1.9008,1.9013,1.9016,1.9017,1.9211,1.9214,0,0,0,0,0,0,1.8768,1.878,1.889,1.8894,1.8816,1.8866,1.8874,1.8901,1.8941,1.8946,1.8909,1.8906,1.8976,1.8984,1.8992,1.9076,1.9013,1.9018,1.9021,1.9209,1.9212,1.9214,0,0,0,0,0,0,1.8764,1.8778,1.8887,1.8837,1.885,1.8871,1.8902,1.8904,1.8923,1.8948,1.8952,1.8925,1.8975,1.8985,1.9046,1.9079,1.902,1.9025,1.9207,1.921,1.9213,1.9247,0,0,0,0,0,0,1.876,1.8777,1.8804,1.8837,1.8853,1.894,1.8904,1.8907,1.8931,1.8928,1.8964,1.8968,1.8974,1.9039,1.9051,1.9084,1.9028,1.9204,1.9208,1.9212,1.9243,1.9251,1.9258,0,0,0,0,0,1.8755,1.8812,1.8806,1.8819,1.8888,1.8942,1.8951,1.8956,1.8934,1.8962,1.8977,1.8967,1.9073,1.9045,1.9059,1.9094,1.9202,1.9207,1.9212,1.9239,1.9249,1.9258,0,0,0,0,0,0,1.8783,1.8816,1.881,1.8879,1.8908,1.8939,1.8974,1.8967,1.9003,1.8998,1.9004,1.9012,1.9073,1.909,1.9058,1.9164,1.9134,1.9142,1.9151,1.916,1.9168,1.9162,1.9032,0,0,0,0,0,1.8797,1.8838,1.8865,1.8923,1.8938,1.8953,1.8977,1.8978,1.9008,1.902,1.9041,1.907,1.911,1.9136,1.9175,1.9245,1.9252,1.9276,1.9284,1.929,1.9296,1.9332,1.9343,1.9231,1.9231,1.9231,0,0,1.8826,1.885,1.8875,1.8929,1.8951,1.8993,1.8964,1.9009,1.904,1.9028,1.9085,1.9101,1.9134,1.92,1.923,1.9215,1.9328,1.9296,1.9301,1.9304,1.9339,1.9349,1.9359,1.9234,1.9234,1.9233,0,0,1.8901,1.8924,1.8974,1.8996,1.903,1.9039,1.9051,1.9083,1.9093,1.9151,1.9141,1.9178,1.9247,1.927,1.9291,1.9373,1.9364,1.9385,1.9424,1.9459,1.9468,1.9476,1.9503,1.9513,1.9392,1.9392,1.9392,0,1.8934,1.8996,1.9,1.9046,1.9069,1.9059,1.9109,1.9131,1.9175,1.9191,1.9175,1.9259,1.9281,1.9351,1.937,1.9388,1.9401,1.9381,1.9466,1.9474,1.9481,1.9507,1.9518,1.9394,1.9394,1.9393,1.9393,0,1.9033,1.9077,1.9113,1.9155,1.9182,1.923,1.9241,1.9268,1.9267,1.9278,1.9336,1.9362,1.9404,1.942,1.9421,1.9489,1.9479,1.9465,1.9435,1.9494,1.9518,1.9529,1.9397,1.9396,1.9396,1.9395,0,0,1.9128,1.917,1.9184,1.9201,1.9237,1.927,1.9317,1.9357,1.9379,1.941,1.9448,1.9506,1.9492,1.9516,1.9518,1.9549,1.9609,1.953,1.9531,1.9543,1.9685,1.9694,1.9706,1.9604,1.9606,1.9607,1.9681,0,1.9205,1.9286,1.9291,1.9364,1.9403,1.9393,1.9433,1.9459,1.947,1.9505,1.9517,1.9557,1.9537,1.955,1.9581,1.9596,1.9638,1.9591,1.9639,1.964,1.9629,1.9719,1.973,1.9798,1.9691,1.9693,1.9694,0,1.9305,1.9337,1.9415,1.9442,1.9459,1.9495,1.9531,1.9564,1.9593,1.9599,1.9624,1.9621,1.9668,1.9637,1.9701,1.9669,1.9688,1.9698,1.9701,1.9705,1.967,1.9723,1.982,1.983,1.9709,1.9708,1.9707,0,1.9364,1.9427,1.9481,1.9497,1.9531,1.9556,1.9571,1.9598,1.9621,1.9653,1.9667,1.9705,1.9725,1.9753,1.976,1.9737,1.9823,1.9793,1.9829,1.9828,1.9847,1.9845,1.9946,1.9862,1.9862,1.9862,1.9861,0,1.9448,1.9495,1.9507,1.954,1.9592,1.9596,1.9648,1.9662,1.9685,1.972,1.9714,1.9747,1.9755,1.9789,1.9795,1.9845,1.9855,1.9861,1.9861,1.986,1.9859,1.9873,1.9867,1.9864,1.9864,1.9863,1.9863,0,1.9522,1.9533,1.959,1.9617,1.9625,1.9662,1.9685,1.9716,1.9726,1.977,1.978,1.9796,1.9836,1.9846,1.9894,1.9898,1.9957,1.9954,1.9947,1.9947,1.9981,1.9977,2.0093,2.0108,2.0015,2.0016,2.0016,0,1.9575,1.9611,1.9641,1.9663,1.9679,1.9716,1.9739,1.9744,1.9769,1.9802,1.9829,1.9868,1.9899,1.9963,1.9979,2.0015,2.0012,2.005,2.0017,2.0014,2.001,2.0007,2.001,2.0056,2.0057,2.0058,2.0058,0,1.9666,1.9668,1.9702,1.9736,1.9764,1.9792,1.9818,1.9837,1.9845,1.9873,1.9913,1.9937,1.9985,2.0023,2.0059,2.0074,2.0068,2.0069,2.0078,2.0077,2.0071,2.0073,1.9962,2.0066,2.0065,2.0064,2.0064,2.0064,1.973,1.976,1.9785,1.9822,1.9842,1.9866,1.9896,1.9909,1.9942,1.9981,1.9982,2.0025,2.0051,2.0098,2.0116,2.0149,2.0138,2.0152,2.0156,2.0159,2.0161,2.0066,2.0156,2.0156,2.0156,2.0156,2.0156,0,1.9818,1.9834,1.9868,1.9904,1.9932,1.9923,1.9951,1.9975,2.0013,2.0038,2.0068,2.0113,2.0149,2.0167,2.0203,2.0226,2.0224,2.0235,2.0233,2.0236,2.017,2.0157,2.0237,2.0237,2.0237,2.0237,2.0236,2.0236,1.9868,1.9918,1.9923,1.9983,1.9998,2.0039,2.0056,2.0078,2.0097,2.0147,2.0177,2.0188,2.021,2.0247,2.028,2.0284,2.0297,2.0309,2.0312,2.025,2.0241,2.0233,2.0221,2.0313,2.0313,2.0375,2.0376,2.0376]},{"header":{"parameterUnit":"m.s-1","parameterCategory":1,"la1":30.2991,"la2":30.254,"lo1":-89.0895,"lo2":-89.0444,"dy":0.0017,"dx":0.0017,"nx":28,"ny":28,"refTime":"2024-07-15T09:00:00:Z","depth":0,"parameterNumber":3,"parameterNumberName":"V-component_of_WINDS"},"data":[0,0,0,0,0,0,0,0,0,0,0,0,0,0,0,0,0,0,0,0,0,0,0,0,0,0,0,0,0,0,0,0,0,0,0,0,0,0,0,0,0,0,0,0,0,0,0,0,0,0,0,0,0,0,0,0,0,0,5.7551,5.7552,0,5.7637,5.7638,5.7638,5.7584,5.7581,5.7579,5.7576,5.7656,5.7661,5.7665,0,0,0,0,0,0,0,0,0,0,0,0,0,5.7332,5.7337,5.7551,5.7552,5.7553,5.7636,5.7638,5.7639,5.7584,5.7581,5.7578,5.7575,5.7655,5.766,5.7665,0,0,0,0,0,0,0,0,0,0,0,0,0,5.7423,5.7338,5.7551,5.7536,5.7536,5.7636,5.7638,5.7639,5.7585,5.7581,5.7577,5.7574,5.7653,5.7659,5.7666,5.7783,0,0,5.7687,5.769,0,0,0,0,0,0,0,0,5.7418,5.7431,5.7537,5.7537,5.7537,5.7596,5.759,5.7687,5.7586,5.7566,5.7576,5.7572,5.7639,5.7646,5.767,5.7787,5.7791,5.7687,5.7691,5.7694,5.7696,0,0,0,0,0,0,0,5.7412,5.7427,5.7585,5.7539,5.7539,5.7523,5.7531,5.7608,5.7622,5.7567,5.7564,5.7575,5.7638,5.7664,5.7672,5.7792,5.7687,5.7693,5.7697,5.77,5.8006,5.801,0,0,0,0,0,0,5.7408,5.7422,5.7582,5.7587,5.7467,5.753,5.7539,5.7581,5.7621,5.7624,5.7578,5.7572,5.7654,5.7664,5.7674,5.7813,5.7694,5.77,5.7704,5.8002,5.8007,5.8011,0,0,0,0,0,0,5.7403,5.7423,5.7578,5.7504,5.7523,5.7537,5.7584,5.7584,5.7611,5.763,5.7631,5.7603,5.7652,5.7665,5.7757,5.7815,5.7703,5.771,5.7997,5.8004,5.8009,5.8091,0,0,0,0,0,0,5.7397,5.7422,5.7468,5.7506,5.7527,5.7662,5.7588,5.7589,5.7623,5.7616,5.7653,5.7655,5.765,5.7747,5.7763,5.7822,5.7715,5.7992,5.8,5.8007,5.8083,5.8099,5.8113,0,0,0,0,0,5.739,5.7487,5.7471,5.7491,5.7586,5.7666,5.7677,5.7671,5.7628,5.7674,5.7686,5.7654,5.7806,5.7757,5.7775,5.7836,5.7988,5.7998,5.8007,5.8077,5.8096,5.8113,0,0,0,0,0,0,5.7453,5.7491,5.7474,5.7587,5.7624,5.7656,5.7714,5.7692,5.774,5.7731,5.7719,5.7728,5.7823,5.7839,5.7783,5.7951,5.789,5.7903,5.7937,5.7956,5.797,5.7964,5.772,0,0,0,0,0,5.7481,5.7545,5.7574,5.767,5.769,5.7699,5.7733,5.7725,5.7762,5.7776,5.7795,5.783,5.7885,5.7921,5.7973,5.8086,5.8091,5.8137,5.8152,5.8164,5.8175,5.8233,5.8253,5.8042,5.8042,5.8042,0,0,5.7538,5.7566,5.7607,5.7684,5.7711,5.7775,5.7712,5.7783,5.7829,5.7786,5.7874,5.7889,5.7927,5.8029,5.8075,5.8045,5.8234,5.8176,5.8185,5.8189,5.8244,5.8264,5.8282,5.8048,5.8047,5.8046,0,0,5.7673,5.7703,5.7785,5.7815,5.7858,5.7864,5.7884,5.792,5.7928,5.8017,5.7986,5.8039,5.8136,5.8163,5.819,5.8335,5.8307,5.8352,5.8429,5.8486,5.8503,5.8517,5.8567,5.8585,5.8363,5.8364,5.8364,0,5.7737,5.7835,5.783,5.7903,5.7936,5.7903,5.7985,5.8013,5.807,5.8092,5.8059,5.8178,5.8201,5.8308,5.8343,5.8367,5.8386,5.8347,5.8501,5.8516,5.8529,5.8577,5.8596,5.8369,5.8368,5.8368,5.8367,0,5.791,5.7979,5.804,5.8098,5.8138,5.8215,5.8219,5.826,5.8248,5.8256,5.8345,5.8372,5.8428,5.8453,5.8442,5.8558,5.8538,5.8503,5.8442,5.8555,5.8599,5.8617,5.8376,5.8374,5.8373,5.8371,0,0,5.8088,5.8143,5.8165,5.8191,5.8236,5.8287,5.8361,5.8418,5.8452,5.8493,5.8553,5.8635,5.8603,5.8633,5.8624,5.8675,5.8785,5.8633,5.8634,5.8659,5.8912,5.8937,5.8958,5.8768,5.8771,5.8774,5.8908,0,5.8224,5.8357,5.8354,5.8476,5.8537,5.8506,5.857,5.8604,5.8613,5.8664,5.8673,5.873,5.8685,5.8703,5.8751,5.8762,5.8836,5.8752,5.882,5.8823,5.8811,5.8981,5.9008,5.9134,5.8926,5.8929,5.8931,0,5.8402,5.845,5.8579,5.8614,5.864,5.8698,5.8749,5.88,5.8835,5.8838,5.8872,5.8855,5.8927,5.8865,5.8963,5.8906,5.8934,5.8943,5.8948,5.8952,5.8883,5.8988,5.9174,5.9192,5.8958,5.8956,5.8954,0,5.8515,5.8613,5.8702,5.8725,5.8769,5.881,5.883,5.8862,5.8896,5.894,5.8962,5.9013,5.904,5.9079,5.9075,5.9031,5.9173,5.9111,5.9175,5.9175,5.9205,5.9203,5.9395,5.9226,5.9226,5.9226,5.9225,0,5.8667,5.8747,5.8754,5.8808,5.8895,5.889,5.8975,5.899,5.9019,5.9074,5.905,5.9101,5.9094,5.9145,5.9142,5.9222,5.9235,5.9237,5.9235,5.9238,5.9238,5.9255,5.9245,5.9231,5.923,5.9229,5.9228,0,5.8808,5.8817,5.8912,5.8946,5.8957,5.9019,5.9047,5.9097,5.9104,5.9174,5.919,5.92,5.9259,5.9259,5.9325,5.9323,5.9421,5.9409,5.9409,5.9406,5.9469,5.9463,5.9678,5.9705,5.952,5.9522,5.9523,0,5.8904,5.8965,5.9006,5.9042,5.9065,5.9124,5.9159,5.9155,5.9192,5.9237,5.9281,5.9338,5.9383,5.9477,5.9489,5.9539,5.9527,5.9599,5.9534,5.9535,5.9526,5.9522,5.9526,5.9611,5.9613,5.9615,5.9616,0,5.9072,5.9073,5.9126,5.9181,5.9224,5.9266,5.9304,5.9335,5.9335,5.9377,5.9438,5.9473,5.9541,5.9597,5.9645,5.9662,5.9638,5.9637,5.9654,5.9657,5.9654,5.9654,5.9442,5.9632,5.963,5.9629,5.9628,5.9628,5.9191,5.9243,5.9281,5.934,5.9369,5.9406,5.9455,5.9469,5.952,5.9577,5.9571,5.9638,5.967,5.9733,5.9754,5.9804,5.9779,5.9804,5.981,5.9816,5.9822,5.9648,5.9813,5.9813,5.9812,5.9812,5.9812,0,5.9356,5.9379,5.9434,5.949,5.9536,5.9513,5.9554,5.9593,5.9654,5.9687,5.9732,5.9801,5.9854,5.9871,5.9922,5.9959,5.9949,5.9972,5.9968,5.9972,5.9843,5.9822,5.9979,5.9979,5.9979,5.9979,5.9979,5.9979,5.9447,5.9533,5.9539,5.9638,5.9659,5.9727,5.9752,5.9784,5.9811,5.989,5.9935,5.9946,5.9972,6.0025,6.0072,6.0075,6.0094,6.0121,6.0119,5.9998,5.9981,5.9965,5.9946,6.0126,6.0126,6.0244,6.0245,6.0246]}]]